Location: Berlin-Gr�nau
(52.4215°N, 13.5761°E)
Time: 23:50:01
(UTC+00:00)

Daily predictions for brighter satellites

Satellite Brightness Start Highest point End
(mag) Time Altitude Azimuth Time Altitude Azimuth Time Altitude Azimuth
Cosmos 2219 4.5 17:02:42 10° NW 17:08:05 47° WSW 17:13:25 10° S
CSL-04 Rocket 4.3 17:03:42 10° SE 17:08:45 37° ENE 17:13:47 10° N
Cosmos 1408 Rocket 3.6 17:06:47 10° S 17:11:14 83° E 17:15:44 10° NNE
Cosmos 292 Rocket 4.5 17:07:14 10° SSE 17:11:27 32° ESE 17:15:40 10° NE
Cosmos 1242 Rocket 2.4 17:09:28 10° NNW 17:13:01 85° ENE 17:16:35 10° SSE
Cosmos 1818 4.2 17:08:13 10° NW 17:13:40 64° SW 17:19:03 10° SSE
COSMO-SKYMED 1 2.6 17:13:53 10° NNE 17:18:14 67° ESE 17:22:33 10° S
Cosmos 1515 Rocket 4.2 17:15:57 10° NNW 17:20:19 64° W 17:24:42 10° S
Cosmos 1656 3.7 17:15:37 10° SSW 17:21:10 88° NW 17:26:41 10° NNE
YAOGAN 1 2.6 17:17:14 10° SSE 17:21:29 59° ENE 17:25:47 10° N
Okean-O 2.7 17:18:06 10° SSE 17:22:27 60° ENE 17:26:50 10° N
Helios 1A Rocket 3.3 17:19:09 10° SE 17:22:58 40° ENE 17:26:47 10° N
Cosmos 1500 Rocket 3.5 17:19:05 10° S 17:23:21 61° E 17:27:39 10° NNE
Cosmos 1980 Rocket 2.8 17:19:41 10° S 17:24:43 34° ESE 17:29:48 10° NE
APEX 4.1 17:22:13 10° N 17:24:45 21° NE 17:26:40 12° E
SL-4 R/B 2.7 17:21:50 10° SSW 17:25:00 29° SSE 17:27:44 12° E
Lacrosse 5 rocket 2.4 17:24:40 10° WNW 17:28:59 47° SW 17:33:05 10° SE
CSL-04 DEB 4.2 17:25:06 10° NNE 17:29:03 77° ESE 17:32:59 10° SSW
Cosmos 2056 Rocket 4.4 17:24:42 10° SW 17:30:00 53° WNW 17:35:17 10° NNE
Cosmos 2227 4.5 17:25:25 10° NNW 17:31:05 52° NE 17:36:42 10° SE
Sich 1 3.7 17:28:54 10° SSE 17:32:50 33° E 17:36:48 10° NNE
Cosmos 44 4.0 17:27:41 10° NW 17:33:06 67° SW 17:38:28 10° SSE
Cosmos 2082 4.3 17:28:10 10° NW 17:33:44 63° WSW 17:39:15 10° SSE
Cosmos 968 Rocket 4.3 17:29:41 10° NNW 17:34:26 33° NE 17:39:07 10° ESE
Cosmos 1452 Rocket 3.5 17:29:30 10° SSW 17:34:44 75° ESE 17:40:00 10° NNE
CZ-4B R/B 1.2 17:33:09 10° NNE 17:36:11 82° WNW 17:39:13 10° SSW
Cosmos 1707 Rocket 3.8 17:36:13 10° N 17:40:30 45° ENE 17:44:43 10° SSE
SJ-11-01 4.2 17:35:50 10° SSE 17:40:31 82° ENE 17:45:14 10° NNW
Cosmos 1867 4.2 17:37:30 10° S 17:42:20 34° ESE 17:47:13 10° NE
Cosmos 1437 2.7 17:42:42 10° N 17:45:30 43° ENE 17:48:18 10° SSE
USA 234 3.6 17:42:03 11° ENE 17:48:11 46° SE 17:54:26 10° SSW
ERS-2 2.3 17:44:37 10° NNE 17:48:12 49° ESE 17:51:45 10° S
Cosmos 1697 Rocket 2.7 17:43:09 10° SSW 17:48:49 83° ESE 17:54:30 10° NNE
Cosmos 1633 Rocket 4.0 17:45:12 10° SE 17:48:54 27° E 17:52:37 10° NNE
MOS 1 Rocket 3.9 17:44:36 10° N 17:49:20 63° WNW 17:54:19 10° SSW
Cosmos 2360 4.2 17:44:08 10° SSW 17:49:48 72° ESE 17:55:31 10° NE
Cosmos 1110 Rocket 4.2 17:46:48 10° S 17:51:57 53° ESE 17:57:08 10° NNE
SL-16 R/B 3.4 17:50:05 10° SE 17:53:53 19° E 17:55:08 17° E
PSLV R/B 3.8 17:52:55 10° NNE 17:57:04 73° ESE 18:01:10 10° S
SAR-Lupe-4 3.6 17:53:52 10° NNE 17:57:25 57° ESE 18:00:56 10° S
NOSS 2-1 (E) 4.4 17:53:25 10° NW 17:58:14 73° SW 18:05:02 10° SE
Cosmos 2369 3.7 17:55:01 10° SSW 18:00:40 82° ESE 18:06:24 10° NNE
USA 305 3.7 17:57:25 10° SSW 18:01:17 34° SE 18:03:07 23° E
Nadezhda 3 Rocket 4.2 17:55:24 10° N 18:01:32 48° ENE 18:07:40 10° SE
SeaSat 1 2.4 17:59:02 10° NE 18:04:00 72° ESE 18:08:56 10° SSW
Cosmos 1607 4.2 17:58:31 10° SW 18:04:58 80° NW 18:11:31 10° NE
Cosmos 2154 Rocket 4.4 17:59:42 10° SSE 18:05:23 39° E 18:11:04 10° NNE
Ariane Rocket 3.5 18:03:13 16° ESE 18:06:46 38° ENE 18:11:28 10° N
Resurs 01 Rocket 3.1 18:07:04 18° ENE 18:07:11 18° ENE 18:10:12 10° NNE
Cosmos 2263 Rocket 2.1 18:02:07 10° NNW 18:07:44 87° ENE 18:13:18 10° SSE
CZ-4 R/B 2.7 18:04:06 10° S 18:07:45 41° W 18:11:27 10° NNW
USA 307 3.6 18:05:09 10° SSW 18:09:04 36° SE 18:10:34 27° ESE
Okean 1-7 4.4 18:06:48 10° NNE 18:10:01 21° ENE 18:10:01 21° ENE
Cosmos 2074 Rocket 4.0 18:08:07 10° S 18:14:18 65° E 18:20:30 10° NNE
FALCON 9 DEB 3.8 18:12:22 10° SW 18:15:14 31° SSE 18:15:24 31° SE
USA 306 3.5 18:11:24 10° SW 18:15:24 40° SE 18:16:44 31° ESE
SAR-Lupe-1 4.0 18:11:49 10° NNE 18:15:26 88° WNW 18:19:02 10° SSW
USA 308 3.4 18:15:16 10° SW 18:19:17 40° SSE 18:20:26 33° ESE
Cosmos 1515 3.8 18:16:48 10° N 18:20:35 53° ENE 18:22:18 28° SE
Cosmos 1470 Rocket 4.2 18:20:13 31° ESE 18:20:51 32° E 18:24:51 10° NNE
Cosmos 1805 Rocket 3.9 18:17:40 10° SSW 18:22:00 68° WNW 18:26:25 10° N
Aureole 2 Rocket 4.4 18:21:02 10° N 18:21:21 12° NNE 18:21:21 12° NNE
Cosmos 2184 Rocket 3.9 18:20:47 10° S 18:26:55 75° E 18:33:06 10° NNE
Meteor 2-4 Rocket 4.1 18:21:29 10° N 18:26:58 44° ENE 18:29:44 27° SE
H-2A R/B 3.5 18:22:30 10° SSW 18:27:36 41° W 18:32:47 10° NNW
USA 186 3.3 18:29:49 18° N 18:29:49 18° N 18:30:34 10° N
Cosmos 1703 Rocket 4.5 18:24:19 10° N 18:28:01 30° ENE 18:28:01 30° ENE
ARGOS 3.9 18:23:00 10° S 18:28:18 55° W 18:33:39 10° NNW
Cosmos 1271 Rocket 3.0 18:26:25 10° NNW 18:30:09 64° W 18:33:51 10° S
SJ-6B 2.9 18:28:39 27° SE 18:30:44 63° ENE 18:34:47 10° N
COSMOS 2455 3.9 18:25:28 10° NW 18:31:10 45° WSW 18:36:50 10° S
OBJECT-B 1.3 18:32:13 42° NE 18:32:13 42° NE 18:34:46 10° N
Meteor 1-18 Rocket 4.3 18:26:01 10° N 18:31:58 71° ENE 18:37:54 10° SSE
Cosmos 2278 3.7 18:27:22 10° SSW 18:33:04 90° NW 18:38:49 10° NNE
SL-08 RB Rocket 4.2 18:28:38 10° S 18:33:04 60° W 18:37:35 10° NNW
FALCON 9 DEB 3.6 18:30:51 10° SW 18:33:29 41° S 18:33:29 41° S
Cosmos 1844 4.4 18:29:06 10° NNW 18:34:30 37° NE 18:36:05 32° ENE
Meteor 1-25 Rocket 4.2 18:29:47 10° S 18:35:33 72° E 18:41:17 10° NNE
GP-B 3.1 18:33:07 22° SSE 18:35:49 56° E 18:40:11 10° N
CZ-2C R/B 2.6 18:30:42 10° NNE 18:36:20 87° ESE 18:41:48 10° SSW
Cosmos 1689 Rocket 3.6 18:34:01 10° N 18:36:42 36° WNW 18:39:22 10° SW
Okean 1 3.2 18:32:49 10° N 18:36:52 78° E 18:38:49 29° SSE
Cosmos 1461 4.3 18:34:34 10° S 18:37:22 27° SSE 18:37:22 27° SSE
MetOp-A 4.1 18:33:31 10° SSE 18:38:53 89° ENE 18:44:17 10° NNW
Cosmos 44 Rocket 3.5 18:34:14 10° NW 18:39:28 66° NE 18:41:15 40° ESE
Cosmos 1602 3.6 18:35:51 10° S 18:39:41 65° E 18:43:34 10° NNE
FALCON 9 DEB 3.0 18:36:49 10° W 18:40:16 79° N 18:40:27 74° NE
Cosmos 1862 Rocket 3.5 18:37:17 10° NNW 18:41:49 87° WSW 18:45:36 14° S
Cosmos 2278 Rocket 3.8 18:39:31 10° NNW 18:43:27 19° NNE 18:44:39 18° NE
Cosmos 1666 Rocket 3.5 18:39:31 10° SSW 18:43:53 83° WNW 18:48:14 10° N
ATLAS 5 CENTAUR R/B 3.1 18:32:40 10° WSW 18:44:28 66° NW 18:46:36 27° NE
Cosmos 2084 3.5 18:40:18 10° SW 18:44:33 79° NW 18:46:18 35° NE
Cosmos 1844 Rocket 3.0 18:40:26 10° NNW 18:45:50 47° NE 18:47:04 40° E
BREEZE-M DEB (TANK) 2.3 18:43:58 10° WSW 18:46:16 53° S 18:46:16 53° S
Meteor 2-12 Rocket 4.4 18:41:46 10° S 18:47:41 60° E 18:53:40 10° NNE
Cosmos 1486 Rocket 3.9 18:42:25 10° NNW 18:47:43 88° ENE 18:50:25 30° SSE
Cosmos 1331 Rocket 4.3 18:43:00 10° SW 18:48:16 68° WNW 18:53:32 10° NNE
Gbstr 26 Del rocket 3.7 18:44:19 10° SW 18:48:47 48° SSE 18:49:30 45° SE
Cosmos 2341 Rocket 4.2 18:46:42 24° SE 18:50:03 44° E 18:55:58 10° NNE
Resurs 1-3 3.6 18:50:32 57° E 18:50:49 59° ENE 18:55:11 10° N
SPOT 3 Rocket 3.7 18:53:33 47° E 18:54:02 48° ENE 18:59:03 10° N
Cosmos 1339 Rocket 4.5 18:55:33 10° N 19:01:36 57° ENE 19:03:01 47° ESE
SL-4 R/B 2.5 19:00:45 10° WSW 19:03:19 44° WSW 19:03:19 44° WSW
APEX 4.4 19:03:19 10° NW 19:05:43 30° W 19:05:43 30° W
Lacrosse 5 rocket 4.5 19:06:37 10° WSW 19:07:10 10° WSW 19:07:43 10° SW
Cosmos 1980 Rocket 2.9 19:02:59 10° SW 19:08:32 53° NW 19:14:09 10° NNE
Cosmos 1354 Rocket 3.9 19:03:17 10° NNW 19:08:35 71° ENE 19:09:06 65° ESE
Cosmos 2084 Rocket 3.6 19:09:02 10° NW 19:12:58 70° N 19:12:58 70° N
Cosmos 1727 Rocket 4.4 19:09:22 10° N 19:14:43 41° ENE 19:14:43 41° ENE
ARIANE 5 R/B 4.4 19:17:50 21° NNE 19:17:50 21° NNE 19:19:44 10° N
Cosmos 1302 Rocket 4.1 19:11:06 10° SSW 19:16:17 74° WNW 19:21:31 10° NNE
Cosmos 968 Rocket 4.2 19:11:23 10° NNW 19:16:29 52° WSW 19:19:10 26° S
Cosmos 2322 Rocket 3.3 19:12:19 10° S 19:15:03 29° S 19:15:03 29° S
Meteor 1-17 Rocket 4.5 19:17:31 48° S 19:19:03 75° E 19:24:37 10° NNE
Cosmos 1503 Rocket 3.9 19:17:59 10° NNW 19:23:14 82° WSW 19:23:43 72° S
Cosmos 1867 4.0 19:20:19 10° WSW 19:25:42 61° NW 19:28:07 33° NNE
Cosmos 1633 Rocket 4.3 19:22:21 10° SW 19:26:32 40° WNW 19:30:45 10° N
USA 234 3.2 19:29:23 46° ENE 19:31:34 83° NNW 19:38:08 10° WSW
SJ 16-02 3.5 19:30:29 10° N 19:31:50 17° N 19:31:50 17° N
Terra 4.0 19:37:35 15° NNE 19:37:35 15° NNE 19:38:44 10° N
Cosmos 1943 Rocket 4.3 19:32:30 10° NNW 19:35:26 14° NNE 19:36:18 14° NNE
SL-16 R/B 2.1 19:31:33 10° SSW 19:37:13 89° WSW 19:37:13 89° WSW
USA 305 4.3 19:36:42 10° WSW 19:39:14 35° WSW 19:39:14 35° WSW
SeaSat 1 4.3 19:37:00 10° NNE 19:41:11 28° NW 19:45:21 10° W
Resurs 01 Rocket 2.7 19:44:38 42° NNW 19:44:38 42° NNW 19:47:37 10° NNW
Ariane Rocket 4.2 19:43:24 25° SSW 19:45:43 39° W 19:50:32 10° NNW
Okean 1-7 4.2 19:43:46 10° NNW 19:46:54 41° NW 19:46:54 41° NW
Cosmos 2369 Rocket 4.4 19:50:26 10° NNW 19:52:56 13° NNE 19:53:46 13° NNE
MetOp-B 4.5 19:55:08 60° NNW 19:55:08 60° NNW 19:59:32 10° NNW
ASTEX 1 4.2 19:51:06 10° N 19:54:53 48° NNW 19:54:53 48° NNW
OBJECT-B 4.2 20:05:17 12° WNW 20:05:17 12° WNW 20:05:52 10° WNW
Cosmos 1844 4.5 20:13:15 10° NW 20:17:59 49° W 20:17:59 49° W
USA 281 3.8 20:22:44 48° NNE 20:22:44 48° NNE 20:27:47 10° NNW
Cosmos 2278 Rocket 3.5 20:23:14 10° NNW 20:26:31 33° N 20:26:31 33° N
Cosmos 1844 Rocket 3.9 20:24:32 10° NW 20:28:45 36° W 20:28:45 36° W
USA 234 4.3 21:16:44 39° WNW 21:16:44 39° WNW 21:20:48 10° W
Cosmos 1943 Rocket 4.4 21:15:55 10° NNW 21:17:50 19° N 21:17:50 19° N
SL-16 R/B 4.5 21:17:27 10° W 21:28:35 - NNE 21:19:18 18° WNW
